カタログに戻る

COSMOS 1718

運用中軍事LEO
NORAD 16451·PAYLOAD·🇷🇺 Russia

打ち上げ Jan 9, 1986 から Plesetsk Cosmodrome

Loading…

次のパス (今後24時間)

TLE

最新Source: Space-Track

元期: Sep 14, 2026, 17:22 UTC

1 16451U 86002C   26257.72402351  .00000002  00000-0  12450-3 0  9996
2 16451  73.9931 348.2399 0012717 108.9385  58.0060 12.45096611849017

AllMySatでCOSMOS 1718をリアルタイム追跡

Download on the App Store